Weather History for KOSA - July, 2013

Change the Weather History Date:

Thursday, July 18, 2013

  Actual Average (KGGG) Record (KGGG)
Temperature  
Mean Temperature 82 °F 84 °F  
Max Temperature 95 °F 94 °F 107 °F (1934)
Min Temperature 70 °F 74 °F 63 °F (1926)
Degree Days  
Heating Degree Days 0 0  
Month to date heating degree days 0  
Since 1 June heating degree days 0  
Since 1 July heating degree days 0  
Cooling Degree Days 18 19  
Month to date cooling degree days 329  
Year to date cooling degree days 1147  
Since 1 June cooling degree days 768  
Growing Degree Days 32 (Base 50)    
Moisture  
Dew Point 65 °F    
Average Humidity 61    
Maximum Humidity 90    
Minimum Humidity 28    
Precipitation  
Precipitation 0.00 in 0.09 in 2.05 in (1933)
Month to date precipitation 1.97  
Year to date precipitation 26.71  
Snow  
Snow 0.00 in - - ()
Month to date snowfall  
Since 1 June snowfall  
Since 1 July snowfall  
Snow Depth -    
Sea Level Pressure  
Sea Level Pressure 30.13 in    
Wind  
Wind Speed 1 mph (East)    
Max Wind Speed 17 mph    
Max Gust Speed 31 mph    
Visibility 10 miles    
Events      
T = Trace of Precipitation, MM = Missing Value Source: NWS Daily Summary

Daily Weather History Graph

Daily Weather History Graph

Search for Another Location

Airport or City:

Trip Planner

Search our weather history database for the weather conditions in past years. The results will help you decide how hot, cold, wet, or windy it might be!

Date:

Astronomy

Jul. 18, 2013 Rise Set
Actual Time 6:23 AM CDT 8:28 PM CDT
Civil Twilight 5:55 AM CDT 8:55 PM CDT
Nautical Twilight 5:22 AM CDT 9:29 PM CDT
Astronomical Twilight 4:45 AM CDT 10:06 PM CDT
Moon 4:27 PM CDT (7/18) 2:11 AM CDT (7/18)
Length of Visible Light 14h 59m
Length of Day
14h 04m
Waxing Gibbous, 77% of the Moon is Illuminated
Jul 18
Waxing Gibbous
Jul 22
Full
Jul 29
Last Quarter
Aug 6
New
Aug 14
First Quarter

Hourly Weather History & Observations

Time (CDT) Temp. Heat Index Dew Point Humidity Pressure Visibility Wind Dir Wind Speed Gust Speed Precip Events Conditions
12:15 AM 77.4 °F - 67.1 °F 71% 30.19 in 10.0 mi Calm Calm - N/A   Unknown
12:35 AM 78.4 °F - 66.4 °F 66% 30.19 in 10.0 mi Calm Calm - N/A   Unknown
12:55 AM 76.5 °F - 67.1 °F 73% 30.19 in 10.0 mi Calm Calm - N/A   Unknown
1:15 AM 75.0 °F - 67.6 °F 78% 30.18 in 10.0 mi Calm Calm - N/A   Unknown
1:35 AM 75.0 °F - 67.6 °F 78% 30.18 in 10.0 mi Calm Calm - N/A   Unknown
1:55 AM 73.6 °F - 68.9 °F 85% 30.18 in 10.0 mi Calm Calm - N/A   Unknown
2:15 AM 73.9 °F - 68.9 °F 84% 30.18 in 10.0 mi Calm Calm - N/A   Unknown
2:35 AM 74.5 °F - 68.5 °F 82% 30.18 in 10.0 mi Calm Calm - N/A   Unknown
2:55 AM 73.4 °F - 68.9 °F 86% 30.18 in 10.0 mi Calm Calm - N/A   Unknown
3:15 AM 72.7 °F - 68.5 °F 87% 30.18 in 10.0 mi Calm Calm - N/A   Unknown
3:35 AM 73.0 °F - 68.4 °F 85% 30.17 in 10.0 mi Calm Calm - N/A   Unknown
3:55 AM 72.9 °F - 67.8 °F 84% 30.17 in 10.0 mi Calm Calm - N/A   Unknown
4:15 AM 72.5 °F - 67.8 °F 85% 30.17 in 10.0 mi Calm Calm - N/A   Unknown
4:35 AM 73.0 °F - 68.4 °F 85% 30.17 in 10.0 mi Calm Calm - N/A   Unknown
4:55 AM 70.9 °F - 67.5 °F 89% 30.17 in 7.0 mi Calm Calm - N/A   Unknown
5:15 AM 70.7 °F - 67.6 °F 90% 30.17 in 10.0 mi Calm Calm - N/A   Unknown
5:35 AM 70.7 °F - 67.6 °F 90% 30.18 in 10.0 mi Calm Calm - N/A   Unknown
5:55 AM 71.8 °F - 68.2 °F 88% 30.18 in 10.0 mi Calm Calm - N/A   Unknown
6:15 AM 71.2 °F - 68.0 °F 89% 30.18 in 10.0 mi Calm Calm - N/A   Unknown
6:35 AM 71.2 °F - 68.0 °F 89% 30.18 in 10.0 mi North 4.6 mph - N/A   Unknown
6:55 AM 71.8 °F - 68.0 °F 88% 30.18 in 10.0 mi Calm Calm - N/A   Unknown
7:15 AM 72.1 °F - 68.4 °F 88% 30.18 in 10.0 mi Calm Calm - N/A   Unknown
7:35 AM 72.0 °F - 68.5 °F 89% 30.19 in 7.0 mi Calm Calm - N/A   Unknown
7:55 AM 73.8 °F - 69.6 °F 87% 30.19 in 10.0 mi Calm Calm - N/A   Unknown
8:15 AM 76.3 °F - 70.2 °F 81% 30.19 in 10.0 mi Calm Calm - N/A   Unknown
8:35 AM 77.9 °F - 70.3 °F 77% 30.19 in 10.0 mi Calm Calm - N/A   Unknown
8:55 AM 80.4 °F 83.8 °F 70.3 °F 71% 30.20 in 10.0 mi Calm Calm - N/A   Unknown
9:15 AM 82.0 °F 85.5 °F 69.3 °F 65% 30.20 in 10.0 mi Calm Calm - N/A   Unknown
9:35 AM 83.8 °F 86.5 °F 67.3 °F 57% 30.19 in 10.0 mi Calm Calm - N/A   Unknown
9:55 AM 85.1 °F 88.2 °F 68.0 °F 56% 30.19 in 10.0 mi Calm Calm - N/A   Unknown
10:15 AM 86.2 °F 88.4 °F 65.8 °F 51% 30.19 in 10.0 mi Calm Calm - N/A   Unknown
10:35 AM 87.6 °F 90.1 °F 66.2 °F 49% 30.19 in 10.0 mi Calm Calm - N/A   Unknown
10:55 AM 89.1 °F 90.6 °F 64.8 °F 44% 30.19 in 10.0 mi Calm Calm - N/A   Unknown
11:15 AM 89.6 °F 90.1 °F 62.2 °F 40% 30.19 in 10.0 mi Calm Calm - N/A   Unknown
11:35 AM 90.3 °F 92.2 °F 65.1 °F 43% 30.18 in 10.0 mi Calm Calm - N/A   Unknown
11:55 AM 90.1 °F 91.6 °F 64.2 °F 42% 30.18 in 10.0 mi Calm Calm - N/A   Unknown
12:15 PM 91.2 °F 92.5 °F 63.7 °F 40% 30.17 in 10.0 mi SSE 4.6 mph - N/A   Unknown
12:35 PM 92.1 °F 93.2 °F 63.1 °F 38% 30.17 in 10.0 mi NNE 4.6 mph - N/A   Unknown
12:55 PM 91.8 °F 92.2 °F 61.7 °F 37% 30.16 in 10.0 mi Calm Calm - N/A   Unknown
1:15 PM 93.0 °F 93.8 °F 62.4 °F 36% 30.15 in 10.0 mi Calm Calm - N/A   Unknown
1:35 PM 93.6 °F 93.8 °F 61.0 °F 34% 30.14 in 10.0 mi ENE 4.6 mph - N/A   Unknown
1:55 PM 93.7 °F 93.3 °F 59.5 °F 32% 30.12 in 10.0 mi Calm Calm - N/A   Unknown
2:15 PM 93.6 °F 93.4 °F 60.6 °F 33% 30.11 in 10.0 mi ESE 5.8 mph - N/A   Unknown
2:35 PM 93.9 °F 93.6 °F 59.7 °F 32% 30.10 in 10.0 mi Calm Calm - N/A   Unknown
2:55 PM 94.5 °F 93.6 °F 58.5 °F 30% 30.09 in 10.0 mi Calm Calm - N/A   Unknown
3:15 PM 94.3 °F 93.0 °F 57.0 °F 29% 30.07 in 10.0 mi Calm Calm - N/A   Unknown
3:35 PM 94.1 °F 92.8 °F 57.4 °F 29% 30.06 in 10.0 mi Calm Calm - N/A   Unknown
3:55 PM 94.8 °F 93.8 °F 58.1 °F 29% 30.05 in 10.0 mi Calm Calm - N/A   Unknown
4:15 PM 94.5 °F 93.3 °F 57.7 °F 29% 30.04 in 10.0 mi Calm Calm - N/A   Unknown
5:15 PM 95.2 °F 94.7 °F 59.4 °F 30% 30.03 in 10.0 mi NNE 3.5 mph - N/A   Unknown
5:35 PM 93.6 °F 93.1 °F 59.9 °F 32% 30.02 in 10.0 mi Calm Calm - N/A   Unknown
5:55 PM 94.6 °F 93.2 °F 56.8 °F 28% 30.02 in 10.0 mi Calm Calm - N/A   Unknown
6:15 PM 94.5 °F 93.6 °F 58.6 °F 30% 30.02 in 10.0 mi Calm Calm - N/A   Unknown
6:35 PM 94.3 °F 94.1 °F 60.4 °F 32% 30.02 in 10.0 mi Calm Calm - N/A   Unknown
6:55 PM 93.4 °F 94.3 °F 62.4 °F 36% 30.02 in 10.0 mi Calm Calm - N/A   Unknown
7:15 PM 91.4 °F 94.0 °F 65.8 °F 43% 30.02 in 10.0 mi Calm Calm - N/A   Unknown
7:35 PM 87.6 °F 89.1 °F 64.6 °F 46% 30.03 in 10.0 mi SSE 8.1 mph - N/A   Unknown
7:55 PM 86.0 °F 87.9 °F 65.3 °F 50% 30.04 in 10.0 mi South 4.6 mph - N/A   Unknown
8:15 PM 86.0 °F 87.9 °F 65.3 °F 50% 30.05 in 10.0 mi Calm Calm - N/A   Unknown
8:35 PM 85.3 °F 86.8 °F 64.8 °F 50% 30.05 in 10.0 mi Calm Calm - N/A   Unknown
8:55 PM 81.5 °F 83.9 °F 66.9 °F 61% 30.05 in 10.0 mi SE 6.9 mph - N/A   Unknown
9:15 PM 80.4 °F 83.0 °F 67.6 °F 65% 30.05 in 10.0 mi ESE 3.5 mph - N/A   Unknown
9:35 PM 81.7 °F 83.5 °F 65.1 °F 57% 30.07 in 10.0 mi ENE 12.7 mph 19.6 mph N/A   Unknown
9:55 PM 80.6 °F 81.9 °F 63.0 °F 55% 30.07 in 10.0 mi East 11.5 mph 31.1 mph N/A   Unknown
10:15 PM 76.1 °F - 67.5 °F 74% 30.10 in 10.0 mi ENE 17.3 mph 25.3 mph N/A   Unknown
10:35 PM 74.7 °F - 68.9 °F 82% 30.10 in 10.0 mi East 5.8 mph - N/A   Unknown
10:55 PM 74.8 °F - 68.5 °F 81% 30.10 in 10.0 mi East 5.8 mph - N/A   Unknown
11:15 PM 74.7 °F - 69.1 °F 83% 30.09 in 10.0 mi East 4.6 mph - N/A   Unknown
11:35 PM 74.7 °F - 68.9 °F 82% 30.08 in 10.0 mi ESE 6.9 mph - N/A   Unknown
11:55 PM 74.3 °F - 68.9 °F 83% 30.08 in 10.0 mi SE 6.9 mph - N/A   Unknown